TimeMDT,TemperatureF,Dew PointF,Humidity,Sea Level PressureIn,VisibilityMPH,Wind Direction,Wind SpeedMPH,Gust SpeedMPH,PrecipitationIn,Events,Conditions,WindDirDegrees,DateUTC
12:15 AM,59.0,55.4,88,30.30,10.0,ENE,11.5,-,0.03,,Mostly Cloudy,60,2013-07-28 06:15:00
12:35 AM,59.0,55.4,88,30.29,10.0,ENE,12.7,16.1,0.03,,Overcast,60,2013-07-28 06:35:00
12:55 AM,59.0,53.6,82,30.28,10.0,NE,6.9,-,0.04,,Overcast,50,2013-07-28 06:55:00
1:15 AM,59.0,53.6,82,30.27,10.0,Calm,Calm,-,N/A,,Overcast,0,2013-07-28 07:15:00
1:35 AM,59.0,53.6,82,30.26,10.0,North,3.5,-,N/A,,Overcast,10,2013-07-28 07:35:00
1:55 AM,59.0,55.4,88,30.25,10.0,Calm,Calm,-,N/A,,Overcast,0,2013-07-28 07:55:00
2:15 AM,57.2,55.4,94,30.25,10.0,North,3.5,-,N/A,,Overcast,360,2013-07-28 08:15:00
2:35 AM,57.2,53.6,88,30.24,10.0,Calm,Calm,-,N/A,,Mostly Cloudy,0,2013-07-28 08:35:00
2:55 AM,57.2,55.4,94,30.23,10.0,NNW,3.5,-,N/A,,Scattered Clouds,340,2013-07-28 08:55:00
3:15 AM,57.2,55.4,94,30.23,10.0,Calm,Calm,-,N/A,,Partly Cloudy,0,2013-07-28 09:15:00
3:35 AM,57.2,55.4,94,30.22,10.0,North,3.5,-,N/A,,Mostly Cloudy,10,2013-07-28 09:35:00
3:55 AM,57.2,55.4,94,30.22,10.0,Calm,Calm,-,N/A,,Scattered Clouds,0,2013-07-28 09:55:00
4:15 AM,57.2,55.4,94,30.22,10.0,Calm,Calm,-,N/A,,Mostly Cloudy,0,2013-07-28 10:15:00
4:35 AM,57.2,55.4,94,30.22,10.0,North,3.5,-,N/A,,Scattered Clouds,10,2013-07-28 10:35:00
4:55 AM,57.2,55.4,94,30.22,10.0,Calm,Calm,-,N/A,,Partly Cloudy,0,2013-07-28 10:55:00
5:15 AM,57.2,53.6,88,30.21,10.0,North,3.5,-,N/A,,Partly Cloudy,10,2013-07-28 11:15:00
5:35 AM,57.2,53.6,88,30.21,10.0,Calm,Calm,-,N/A,,Mostly Cloudy,0,2013-07-28 11:35:00
5:55 AM,57.2,55.4,94,30.22,10.0,Calm,Calm,-,N/A,,Mostly Cloudy,0,2013-07-28 11:55:00
6:15 AM,57.2,55.4,94,30.22,10.0,Calm,Calm,-,N/A,,Overcast,0,2013-07-28 12:15:00
6:35 AM,57.2,55.4,94,30.22,10.0,Calm,Calm,-,N/A,,Overcast,0,2013-07-28 12:35:00
6:55 AM,57.2,53.6,88,30.22,10.0,East,3.5,-,N/A,,Overcast,80,2013-07-28 12:55:00
7:15 AM,57.2,53.6,88,30.22,10.0,East,3.5,-,N/A,,Overcast,100,2013-07-28 13:15:00
7:35 AM,57.2,53.6,88,30.22,10.0,Calm,Calm,-,N/A,,Scattered Clouds,0,2013-07-28 13:35:00
7:55 AM,59.0,53.6,82,30.22,10.0,Calm,Calm,-,N/A,,Mostly Cloudy,0,2013-07-28 13:55:00
8:15 AM,59.0,53.6,82,30.22,10.0,Calm,Calm,-,N/A,,Overcast,0,2013-07-28 14:15:00
8:35 AM,60.8,53.6,77,30.22,10.0,Calm,Calm,-,N/A,,Partly Cloudy,0,2013-07-28 14:35:00
8:55 AM,62.6,53.6,72,30.22,10.0,Calm,Calm,-,N/A,,Clear,0,2013-07-28 14:55:00
9:15 AM,62.6,55.4,77,30.22,10.0,Calm,Calm,-,N/A,,Partly Cloudy,0,2013-07-28 15:15:00
9:35 AM,64.4,55.4,73,30.22,10.0,Calm,Calm,-,N/A,,Clear,0,2013-07-28 15:35:00
9:55 AM,66.2,55.4,68,30.22,10.0,Calm,Calm,-,N/A,,Partly Cloudy,0,2013-07-28 15:55:00
10:15 AM,66.2,55.4,68,30.21,10.0,Calm,Calm,-,N/A,,Mostly Cloudy,0,2013-07-28 16:15:00
10:35 AM,68.0,55.4,64,30.21,10.0,WNW,3.5,-,N/A,,Mostly Cloudy,290,2013-07-28 16:35:00
10:55 AM,66.2,55.4,68,30.22,10.0,Calm,Calm,-,N/A,,Overcast,0,2013-07-28 16:55:00
11:15 AM,69.8,55.4,60,30.21,10.0,WNW,5.8,-,N/A,,Mostly Cloudy,300,2013-07-28 17:15:00
11:35 AM,71.6,55.4,57,30.21,10.0,WNW,3.5,-,N/A,,Mostly Cloudy,300,2013-07-28 17:35:00
11:55 AM,71.6,55.4,57,30.20,10.0,SW,8.1,-,N/A,,Mostly Cloudy,220,2013-07-28 17:55:00
12:15 PM,71.6,55.4,57,30.19,10.0,WSW,12.7,-,N/A,,Scattered Clouds,240,2013-07-28 18:15:00
12:35 PM,73.4,55.4,53,30.18,10.0,WSW,8.1,17.3,N/A,,Mostly Cloudy,240,2013-07-28 18:35:00
12:55 PM,75.2,55.4,50,30.16,10.0,SW,9.2,16.1,N/A,,Mostly Cloudy,230,2013-07-28 18:55:00
1:15 PM,-9999,-9999,N/A,30.16,10.0,WSW,8.1,-,N/A,,Mostly Cloudy,250,2013-07-28 19:15:00
1:35 PM,73.4,53.6,50,30.16,10.0,SW,20.7,24.2,N/A,Thunderstorm,Overcast,230,2013-07-28 19:35:00
1:55 PM,69.8,51.8,53,30.16,10.0,WSW,21.9,28.8,N/A,Thunderstorm,Mostly Cloudy,250,2013-07-28 19:55:00
2:15 PM,66.2,51.8,60,30.21,10.0,NW,17.3,29.9,N/A,Thunderstorm,Mostly Cloudy,310,2013-07-28 20:15:00
2:35 PM,62.6,53.6,72,30.21,10.0,NNW,4.6,-,0.01,Thunderstorm,Overcast,330,2013-07-28 20:35:00
2:55 PM,62.6,53.6,72,30.22,6.0,SE,6.9,-,0.03,,Mostly Cloudy,140,2013-07-28 20:55:00
3:15 PM,60.8,55.4,82,30.21,10.0,SE,10.4,-,0.01,,Overcast,130,2013-07-28 21:15:00
3:35 PM,62.6,55.4,77,30.20,10.0,East,11.5,-,0.01,,Overcast,100,2013-07-28 21:35:00
3:55 PM,62.6,55.4,77,30.19,10.0,SE,10.4,-,0.01,,Overcast,130,2013-07-28 21:55:00
4:15 PM,62.6,55.4,77,30.18,10.0,SSE,10.4,-,N/A,,Overcast,150,2013-07-28 22:15:00
4:35 PM,64.4,55.4,73,30.17,10.0,SSE,8.1,-,N/A,,Mostly Cloudy,160,2013-07-28 22:35:00
4:55 PM,66.2,55.4,68,30.17,10.0,Calm,Calm,-,N/A,,Mostly Cloudy,0,2013-07-28 22:55:00
5:15 PM,68.0,55.4,64,30.17,10.0,Calm,Calm,-,N/A,,Mostly Cloudy,0,2013-07-28 23:15:00
5:35 PM,69.8,53.6,56,30.17,10.0,Calm,Calm,-,N/A,,Mostly Cloudy,0,2013-07-28 23:35:00
5:55 PM,69.8,51.8,53,30.17,10.0,Calm,Calm,-,N/A,,Mostly Cloudy,0,2013-07-28 23:55:00
6:15 PM,69.8,53.6,56,30.17,10.0,South,3.5,-,N/A,,Mostly Cloudy,170,2013-07-29 00:15:00
6:35 PM,69.8,51.8,53,30.17,10.0,SSE,4.6,-,N/A,,Overcast,160,2013-07-29 00:35:00
6:55 PM,69.8,51.8,53,30.17,10.0,South,3.5,-,N/A,,Mostly Cloudy,180,2013-07-29 00:55:00
7:15 PM,68.0,53.6,60,30.17,10.0,Calm,Calm,-,N/A,,Scattered Clouds,0,2013-07-29 01:15:00
7:35 PM,68.0,53.6,60,30.18,10.0,North,5.8,-,N/A,,Partly Cloudy,350,2013-07-29 01:35:00
7:55 PM,66.2,53.6,64,30.18,10.0,North,6.9,-,N/A,,Partly Cloudy,360,2013-07-29 01:55:00
8:15 PM,64.4,53.6,68,30.19,10.0,NNE,8.1,-,N/A,,Mostly Cloudy,20,2013-07-29 02:15:00
8:35 PM,64.4,53.6,68,30.18,10.0,NNE,4.6,-,N/A,,Mostly Cloudy,20,2013-07-29 02:35:00
8:55 PM,62.6,53.6,72,30.19,10.0,Calm,Calm,-,N/A,,Partly Cloudy,0,2013-07-29 02:55:00
9:15 PM,60.8,53.6,77,30.19,10.0,NW,4.6,-,N/A,,Clear,320,2013-07-29 03:15:00
9:35 PM,59.0,51.8,77,30.20,10.0,North,6.9,-,N/A,,Clear,350,2013-07-29 03:35:00
9:55 PM,57.2,51.8,82,30.21,10.0,North,3.5,-,N/A,,Partly Cloudy,350,2013-07-29 03:55:00
10:15 PM,57.2,53.6,88,30.23,10.0,Calm,Calm,-,N/A,,Scattered Clouds,0,2013-07-29 04:15:00
10:35 PM,57.2,53.6,88,30.24,10.0,NW,5.8,-,N/A,,Mostly Cloudy,320,2013-07-29 04:35:00
10:55 PM,60.8,53.6,77,30.25,10.0,WNW,9.2,-,N/A,,Overcast,300,2013-07-29 04:55:00
11:15 PM,55.4,51.8,88,30.25,5.0,North,5.8,-,0.35,,Mostly Cloudy,360,2013-07-29 05:15:00
11:35 PM,57.2,51.8,82,30.23,10.0,East,9.2,-,0.36,Thunderstorm,Thunderstorm,90,2013-07-29 05:35:00
11:55 PM,57.2,51.8,82,30.22,10.0,SSE,10.4,-,0.37,,Overcast,150,2013-07-29 05:55:00